Terminal Aerodrome Forecast
Issued by NWS Amarillo, TX

Home | Current Version | Previous Version | Text Only | Print | Product List | Glossary On
Versions: 1 2 3 4 5 6 7 8 9 10 11 12 13 14
000
FTUS44 KAMA 290500
TAFDHT
TAF
KDHT 290540Z 2906/3006 01012KT P6SM BKN300
     FM291400 02017G27KT P6SM SCT100 OVC300
     FM292200 06008KT P6SM SCT050 OVC100=

USA.gov is the U.S. government's official web portal to all federal, state and local government web resources and services.